Weather Roundup
Issued by NWS Corpus Christi, TX

Home | Current Version | Previous Version | Text Only | Print | Product List | Glossary On
Versions: 1 2 3 4 5 6 7 8 9 10 11 12 13 14 15 16 17 18 19 20 21 22 23 24 25 26 27 28 29 30 31 32 33 34 35 36 37 38 39 40 41 42 43 44 45 46 47 48 49 50
000
ASUS44 KCRP 270510
HRRCRP

SOUTH TEXAS REGIONAL WEATHER ROUNDUP
NATIONAL WEATHER SERVICE CORPUS CHRISTI TX
1200 AM CDT THU APR 27 2017


TXZ229>244-270600-
...CORPUS CHRISTI AREA OBSERVATIONS...

CITY           SKY/WX    TMP DP  RH WIND       PRES   REMARKS
CORPUS CHRISTI CLEAR     76  48  37 NE22G32   29.73R
NAS CORPUS CHR CLEAR     80  53  39 NE25G33   29.73R
ROCKPORT       CLEAR     75  55  49 NE21G32   29.72R
KINGSVILLE NAS CLEAR     71  47  42 NE8       29.72R
ALICE          CLEAR     75  40  28 NE13      29.73R
ORANGE GROVE   CLEAR     76  46  34 NE17      29.74R
FALFURRIAS     CLEAR     72  43  35 NE5       29.71R
$$

...VICTORIA AREA OBSERVATIONS...

CITY           SKY/WX    TMP DP  RH WIND       PRES   REMARKS
VICTORIA       CLEAR     70  52  52 NE16G22   29.76R
BEEVILLE       FAIR      73  51  46 NE13G18   29.73R
PLEASANTON     CLEAR     70  46  41 N10       29.76S
SAN ANTONIO    PTCLDY    66  46  48 NE5       29.79R
$$

...LAREDO AREA OBSERVATIONS...

CITY           SKY/WX    TMP DP  RH WIND       PRES   REMARKS
LAREDO         CLEAR     76  41  28 NE10      29.74R
COTULLA        CLEAR     75  36  24 NE13      29.74R
DEL RIO        PTCLDY    67  36  31 NE6       29.77R
MCALLEN        CLEAR     80  67  64 SE3       29.70R
HEBBRONVILLE   PTCLDY    70  44  39 N5        29.75R
$$

...OTHER TEXAS OBSERVATIONS...

CITY           SKY/WX    TMP DP  RH WIND       PRES   REMARKS
BROWNSVILLE    CLEAR     76  70  82 N3        29.68R
HOUSTON        MOCLDY    66  53  63 N14       29.78R
COL. STATION   CLEAR     60  48  64 N14       29.81R
AUSTIN         PTCLDY    65  46  50 N20       29.77F
WACO           CLEAR     49  47  93 CALM      29.82S
FORT WORTH     CLEAR     53  46  77 SW7       29.79S
WICHITA FALLS  CLEAR     49  39  68 SW7       29.78R
LUBBOCK        PTCLDY    53  36  52 SE9       29.77S
EL PASO        PTCLDY    75  16  10 W17G43    29.76S
$$

...MARINE OBSERVATIONS...

STATION/POSITION TIME  SKY/WX   TEMP    WIND        PRES    VSBY  WAVE   SWELL
                                AIR SEA DIR/SP/G                  HT/PER HT/PER
                 (UTC)          (F)     (DEG/KT/KT) (MB)    (MI)  (FT/S) (FT/S)
PORT ARANSAS     0400            81 79   20/ 17/ 19 1004.9R
BUOY 90 E PORT A 0450            76 76  350/  4/  6 1005.7R         6/ 8   5/ 8
BUOY 45 SE BAFFI 0450            78      50/  4/  4 1004.4R         5/ 7   5/ 7
BUOY 200 E PT IS 0450            79 79  220/  6/ 10 1006.0R         5/ 7   5/ 7
BUOY 15 E GALVES 0450            69 76  360/ 17/ 21 1007.3R         5/ 4   2/ 8
$$




USA.gov is the U.S. government's official web portal to all federal, state and local government web resources and services.